Location: Bush Observatory
(40.2653°N, 94.3194°W)
Time: 14:11:02
(UTC-06:00)

JAS-2 - Visible Passes

Search period start: 26 November 2014 00:00
Search period end: 06 December 2014 00:00
Orbit: 801 x 1321 km, 98.5° (Epoch: 26 November)

Date Brightness Start Highest point End Pass type
(mag) Time Alt. Az. Time Alt. Az. Time Alt. Az.
26 Nov 10.1 05:25:02 10° NNE 05:32:05 65° E 05:38:14 10° S visible
26 Nov 10.9 17:18:45 10° S 17:26:12 58° W 17:33:58 10° NNW visible
27 Nov 11.8 04:31:08 10° NE 04:36:34 24° E 04:41:30 10° SE visible
27 Nov 9.8 06:15:14 10° N 06:22:06 56° WNW 06:28:08 10° SW visible
27 Nov 12.3 18:10:37 10° SW 18:16:47 26° W 18:23:08 10° NW visible
28 Nov 10.2 05:20:18 10° NNE 05:27:11 60° E 05:33:11 10° S visible
28 Nov 10.8 17:13:51 10° S 17:21:25 61° W 17:29:12 10° NNW visible
29 Nov 11.9 04:26:32 10° NE 04:31:37 22° E 04:36:15 10° SE visible
29 Nov 9.7 06:10:27 10° N 06:17:15 59° WNW 06:23:12 10° SSW visible
29 Nov 12.2 18:05:34 10° SSW 18:11:56 28° W 18:18:28 10° NW visible
30 Nov 10.3 05:15:35 10° NNE 05:22:16 55° E 05:28:08 10° S visible
30 Nov 10.7 17:08:58 10° S 17:16:38 65° W 17:24:26 10° NNW visible
30 Nov 13.1 19:01:12 10° W 19:02:55 11° W 19:04:38 10° WNW visible
01 Dec 12.0 04:21:58 10° NE 04:26:39 20° E 04:30:57 10° SE visible
01 Dec 9.6 06:05:40 10° N 06:12:23 62° WNW 06:18:15 10° SSW visible
01 Dec 12.1 18:00:32 10° SSW 18:07:06 30° W 18:13:46 10° NW visible
02 Dec 10.4 05:10:51 10° NNE 05:17:21 51° E 05:23:03 10° S visible
02 Dec 13.0 18:55:26 10° WSW 18:58:02 12° W 19:00:38 10° WNW visible
03 Dec 12.0 04:17:25 10° NE 04:21:41 18° E 04:25:37 10° SE visible
03 Dec 9.5 06:00:52 10° N 06:07:30 66° WNW 06:13:18 10° SSW visible
03 Dec 12.0 17:55:32 10° SSW 18:02:17 32° W 18:09:03 10° NNW visible
04 Dec 10.5 05:06:07 10° NNE 05:12:25 47° E 05:17:57 10° S visible
04 Dec 10.4 06:51:40 10° N 06:57:06 28° WNW 07:02:01 10° WSW visible
04 Dec 12.9 18:49:56 10° WSW 18:53:08 13° W 18:56:22 10° WNW visible
05 Dec 12.1 04:12:55 10° NE 04:16:42 16° E 04:20:14 10° SE visible
05 Dec 9.4 05:56:04 10° N 06:02:36 71° WNW 06:08:20 10° SSW visible
05 Dec 11.9 17:50:34 10° SSW 17:57:27 34° W 18:04:19 10° NNW visible
